Regional Weather Roundup
Issued by NWS

Home | Current Version | Previous Version | Graphics & Text | Print | Product List | Glossary On
Versions: 1 2 3 4 5 6 7 8 9 10 11 12 13 14 15 16 17 18 19 20 21 22 23 24 25 26 27 28
000
ASUS45 KTFX 181210
RWRMT
MONTANA REGIONAL WEATHER ROUNDUP
NATIONAL WEATHER SERVICE GREAT FALLS MT
600 AM MDT MON SEP 18 2017

NOTE: "FAIR" INDICATES FEW OR NO CLOUDS BELOW 12000 FEET WITH NO
SIGNIFICANT WEATHER AND/OR OBSTRUCTIONS TO VISIBILITY.

MTZ001>007-043-181300-
WEST OF THE DIVIDE

CITY           SKY/WX    TMP DP  RH WIND       PRES   REMARKS
KALISPELL      LGT RAIN  49  48  97 S6        29.76F FOG
MISSOULA       CLOUDY    48  42  80 N3        29.76F
BUTTE          CLOUDY    38  35  89 SE5       29.85F
MULLAN PASS    LGT RAIN  40  39  97 VRB5      29.77F VSB 1/4
ANACONDA         N/A     46  30  53 E3        29.81F
EUREKA           N/A     54  39  58 MISG      29.71F
HAMILTON         N/A     46  39  76 CALM      29.76F
LIBBY            N/A     48  46  93 CALM      29.71F
RONAN            N/A     50  45  83 MISG      29.82F
$$

MTZ008-052>055-181300-
SOUTHWEST MONTANA

CITY           SKY/WX    TMP DP  RH WIND       PRES   REMARKS
BOZEMAN        CLOUDY    44  38  79 SE8       29.83F
DILLON         CLOUDY    46  32  58 S5        29.84F
W YELLOWSTONE  CLOUDY    30  30 100 CALM      30.00S
ENNIS          CLOUDY    48  32  53 S15       29.90F
THREE FORKS      N/A     41  38  89 CALM      29.83F
TWIN BRIDGES     N/A     43  33  67 CALM      29.85F
$$

MTZ009-010-012-014-046-048-049-054-181300-
EAST SLOPES AND CENTRAL MONTANA

CITY           SKY/WX    TMP DP  RH WIND       PRES   REMARKS
CUT BANK       MOCLDY    49  37  63 SW8       29.71S
GREAT FALLS    CLOUDY    55  33  43 SW12      29.74F
MALMSTROM AFB  CLOUDY    53  37  54 S10       29.74F
HELENA         PTCLDY    46  39  76 SE3       29.78F
BOWMANS CRNR     N/A     48  33  56 S5        29.74F
CHOTEAU          N/A     50  34  53 CALM      29.74F
FAIRFIELD      MOCLDY    50  34  55 SW13      29.73S
POWER          MOCLDY    50  36  58 SW9       29.73S
RAYNESFORD     MOCLDY    52  34  49 CALM      29.76F
ULM            MOCLDY    52  37  56 S8        29.76F
$$

MTZ011-013-016-021-045-047-050-051-181300-
NORTH CENTRAL MONTANA

CITY           SKY/WX    TMP DP  RH WIND       PRES   REMARKS
HAVRE          PTCLDY    43  38  82 NE3       29.69F
LEWISTOWN      CLOUDY    53  34  48 SW12      29.79S
N BAR RANCH    CLOUDY    48  30  49 CALM      29.84S
CHINOOK          N/A     43  37  81 E3        29.70F
DENTON           N/A     51  37  59 S15G21    29.73S
GEYSER         MOCLDY    52  34  51 W7        29.76F
GRASS RANGE      N/A     44  35  69 W3        29.75F
JUDITH GAP     CLOUDY    45  34  66 S9        29.82F
WINIFRED       MOCLDY    57  32  38 SW17      29.74F
$$

MTZ017>020-022>027-061-062-181300-
NORTHEAST MONTANA

CITY           SKY/WX    TMP DP  RH WIND       PRES   REMARKS
GLASGOW        CLEAR     43  40  89 MISG      29.75R
JORDAN           N/A     40  36  86 E3        29.78S
SIDNEY         CLEAR     36  35  96 S5        29.83S
WOLF POINT     CLEAR     38  35  89 E3        29.78F
MALTA          CLOUDY    37  36  93 CALM      29.74S
PLENTYWOOD       N/A     43  37  81 CALM      29.80F
POPLAR           N/A     39  36  87 N3        29.79F
$$

MTZ028>42-056>058-181300-
SOUTHCENTRAL AND SOUTHEAST MONTANA

CITY           SKY/WX    TMP DP  RH WIND       PRES   REMARKS
BAKER          CLEAR     38  35  89 CALM      29.87S
BILLINGS       CLOUDY    50  35  56 SW15      29.81F
LIVINGSTON     CLOUDY    57  29  34 W22G30    29.83R
MILES CITY     CLEAR     44  39  82 SE12      29.82F
BIG TIMBER     CLEAR     39  34  81 CALM      29.87S
HARLOWTON      MOCLDY    39  35  83 MISG      29.83S
LAUREL           N/A     46  36  66 SW13      29.82F
$$

REGIONAL REPORTS...DAKOTAS

CITY           SKY/WX    TMP DP  RH WIND       PRES   REMARKS
WILLISTON      CLEAR     43  41  93 CALM      29.84R
MINOT          CLEAR     43  41  93 CALM      29.85F
DICKINSON      CLEAR     40  40 100 SW5       29.85R
BEACH            N/A     37  37 100 SE6       29.88F
CROSBY           N/A     43  43 100 S10       29.83S
TIOGA            N/A     37  37 100 E5        29.86S
BISMARCK       CLEAR     45  44  97 NE6       29.87S
GRAND FORKS    MOCLDY    46  44  93 SE7       29.95F
FARGO          CLEAR     51  47  86 SE7       29.96S
BUFFALO SD       N/A     40  39  97 W5        29.83R
RAPID CITY     CLEAR     43  37  81 NW7       29.89
$$

REGIONAL REPORTS...WYOMING/IDAHO/WASHINGTON

CITY           SKY/WX    TMP DP  RH WIND       PRES   REMARKS
GILLETTE       CLEAR     43  40  89 SE8       29.92F
SHERIDAN       CLEAR     37  33  85 CALM      29.88S
BUFFALO WY     CLEAR     46  27  47 W7        29.93S
CODY           CLEAR     43  32  65 SE6       29.93S
YELLOWSTONE LA   N/A     28  28 100 NW3       30.05F
IDAHO FALLS    CLOUDY    45  41  86 CALM      29.92F
SALMON         CLOUDY    47  41  80 SE5       29.81F
BOISE          LGT RAIN  59  45  59 NE9       29.84F
SPOKANE        RAIN      52  52 100 SW13      29.69F FOG
$$

REGIONAL REPORTS...ALBERTA

CITY           SKY/WX    TMP DP  RH WIND       PRES   REMARKS
EDMONTON       CLEAR     37  36  93 E7        29.57S
CALGARY        MOCLDY    48  32  53 SW6       29.56F
LETHBRIDGE     MOCLDY    46  34  61 SE7       29.64S
MEDICINE HAT   MOCLDY    48  34  57 SW8       29.64R
$$

REGIONAL REPORTS...SASKATCHEWAN

CITY           SKY/WX    TMP DP  RH WIND       PRES   REMARKS
SWIFT CURRENT  CLEAR     46  34  61 S14       29.68F
REGINA         CLEAR     36  34  93 SE10      29.78R WCI  28
SASKATOON      PTCLDY    43  37  81 E10       29.77F
$$




USA.gov is the U.S. government's official web portal to all federal, state and local government web resources and services.